TimeEST,TemperatureF,Dew PointF,Humidity,Sea Level PressureIn,VisibilityMPH,Wind Direction,Wind SpeedMPH,Gust SpeedMPH,PrecipitationIn,Events,Conditions,WindDirDegrees,DateUTC
12:15 AM,14.0,-6.9,39,30.40,10.0,NNW,6.9,-,N/A,,Clear,330,2014-01-24 05:15:00
12:35 AM,14.0,-7.1,39,30.41,10.0,NNW,4.6,-,N/A,,Clear,340,2014-01-24 05:35:00
12:55 AM,13.8,-6.7,40,30.41,10.0,North,4.6,-,N/A,,Clear,350,2014-01-24 05:55:00
1:15 AM,13.3,-6.2,42,30.42,10.0,NNW,5.8,-,N/A,,Clear,340,2014-01-24 06:15:00
1:35 AM,12.9,-6.9,41,30.42,10.0,NNW,5.8,-,N/A,,Clear,340,2014-01-24 06:35:00
1:55 AM,12.6,-7.1,41,30.43,10.0,North,3.5,-,N/A,,Clear,360,2014-01-24 06:55:00
2:15 AM,12.0,-8.0,41,30.45,10.0,Calm,Calm,-,N/A,,Clear,0,2014-01-24 07:15:00
2:35 AM,10.9,-8.1,42,30.46,10.0,NW,8.1,-,N/A,,Clear,310,2014-01-24 07:35:00
2:55 AM,10.4,-8.3,43,30.46,10.0,NW,6.9,-,N/A,,Clear,310,2014-01-24 07:55:00
3:15 AM,10.2,-8.1,43,30.47,10.0,Calm,Calm,-,N/A,,Clear,0,2014-01-24 08:15:00
3:35 AM,10.2,-8.0,44,30.47,10.0,NW,8.1,16.1,N/A,,Clear,320,2014-01-24 08:35:00
3:55 AM,10.0,-8.5,43,30.47,10.0,WNW,9.2,20.7,N/A,,Clear,300,2014-01-24 08:55:00
4:15 AM,9.5,-8.1,45,30.47,10.0,NW,9.2,17.3,N/A,,Clear,310,2014-01-24 09:15:00
4:35 AM,9.1,-7.6,47,30.47,10.0,NW,8.1,-,N/A,,Clear,310,2014-01-24 09:35:00
4:55 AM,9.3,-6.9,48,30.47,10.0,NW,5.8,-,N/A,,Clear,310,2014-01-24 09:55:00
5:15 AM,9.3,-6.9,48,30.48,10.0,NW,6.9,-,N/A,,Clear,320,2014-01-24 10:15:00
5:35 AM,9.3,-7.1,48,30.49,10.0,WNW,9.2,-,N/A,,Clear,290,2014-01-24 10:35:00
5:55 AM,9.3,-7.6,46,30.49,10.0,WNW,3.5,-,N/A,,Clear,300,2014-01-24 10:55:00
6:15 AM,9.0,-7.6,47,30.49,10.0,WNW,9.2,19.6,N/A,,Clear,300,2014-01-24 11:15:00
6:35 AM,8.8,-7.6,47,30.51,10.0,North,5.8,-,N/A,,Clear,350,2014-01-24 11:35:00
6:55 AM,8.4,-7.6,48,30.52,10.0,NNW,3.5,-,N/A,,Clear,340,2014-01-24 11:55:00
7:15 AM,7.9,-6.3,52,30.52,10.0,NW,8.1,-,N/A,,Clear,310,2014-01-24 12:15:00
7:35 AM,8.2,-6.7,51,30.52,10.0,NW,10.4,-,N/A,,Clear,320,2014-01-24 12:35:00
7:55 AM,8.4,-6.3,51,30.52,10.0,NW,8.1,-,N/A,,Clear,310,2014-01-24 12:55:00
8:15 AM,9.3,-5.8,50,30.51,10.0,Calm,Calm,-,N/A,,Clear,0,2014-01-24 13:15:00
8:35 AM,10.4,-5.6,49,30.51,10.0,NNW,4.6,-,N/A,,Clear,340,2014-01-24 13:35:00
8:55 AM,11.1,-5.4,47,30.51,10.0,North,4.6,-,N/A,,Clear,350,2014-01-24 13:55:00
9:15 AM,11.5,-5.6,46,30.51,10.0,NNW,4.6,-,N/A,,Clear,340,2014-01-24 14:15:00
9:35 AM,12.0,-6.2,44,30.51,10.0,North,3.5,-,N/A,,Clear,350,2014-01-24 14:35:00
9:55 AM,13.3,-6.3,41,30.51,10.0,NW,4.6,-,N/A,,Clear,310,2014-01-24 14:55:00
10:15 AM,14.2,-6.0,41,30.51,10.0,NW,5.8,-,N/A,,Clear,310,2014-01-24 15:15:00
10:35 AM,15.3,-6.7,37,30.52,10.0,WNW,5.8,-,N/A,,Clear,300,2014-01-24 15:35:00
10:55 AM,16.0,-7.8,34,30.51,10.0,Calm,Calm,-,N/A,,Clear,0,2014-01-24 15:55:00
11:15 AM,16.9,-8.3,32,30.49,10.0,Calm,Calm,-,N/A,,Clear,0,2014-01-24 16:15:00
11:35 AM,19.2,-7.1,31,30.48,10.0,SSW,4.6,-,N/A,,Clear,210,2014-01-24 16:35:00
11:55 AM,19.4,-7.8,30,30.47,10.0,South,4.6,-,N/A,,Clear,190,2014-01-24 16:55:00
12:15 PM,20.5,-8.7,27,30.46,10.0,SSW,3.5,-,N/A,,Clear,210,2014-01-24 17:15:00
12:35 PM,21.0,-9.9,25,30.44,10.0,NNW,3.5,-,N/A,,Clear,340,2014-01-24 17:35:00
12:55 PM,22.1,-11.4,22,30.42,10.0,West,3.5,-,N/A,,Clear,270,2014-01-24 17:55:00
1:15 PM,23.2,-11.4,21,30.41,10.0,SW,4.6,9.2,N/A,,Clear,230,2014-01-24 18:15:00
1:35 PM,23.9,-10.5,22,30.40,10.0,SSW,5.8,-,N/A,,Clear,210,2014-01-24 18:35:00
1:55 PM,24.1,-12.5,20,30.38,10.0,SW,6.9,-,N/A,,Clear,230,2014-01-24 18:55:00
2:15 PM,24.8,-13.4,18,30.37,10.0,SSW,6.9,-,N/A,,Clear,210,2014-01-24 19:15:00
2:35 PM,25.7,-13.2,18,30.35,10.0,Calm,Calm,-,N/A,,Clear,0,2014-01-24 19:35:00
2:55 PM,26.2,-12.3,18,30.33,10.0,South,4.6,-,N/A,,Clear,190,2014-01-24 19:55:00
3:15 PM,26.4,-11.6,19,30.33,10.0,SSW,5.8,-,N/A,,Clear,210,2014-01-24 20:15:00
3:35 PM,26.6,-11.6,19,30.32,10.0,SE,5.8,-,N/A,,Clear,140,2014-01-24 20:35:00
3:55 PM,26.6,-13.2,17,30.31,10.0,South,6.9,-,N/A,,Clear,170,2014-01-24 20:55:00
4:15 PM,27.1,-13.2,17,30.29,10.0,SSW,8.1,-,N/A,,Clear,210,2014-01-24 21:15:00
4:35 PM,26.6,-13.2,17,30.29,10.0,SSW,6.9,-,N/A,,Clear,200,2014-01-24 21:35:00
4:55 PM,26.2,-13.4,17,30.29,10.0,South,3.5,-,N/A,,Clear,190,2014-01-24 21:55:00
5:15 PM,25.7,-13.5,17,30.29,10.0,South,4.6,-,N/A,,Clear,170,2014-01-24 22:15:00
5:35 PM,24.8,-13.4,18,30.28,10.0,SSE,5.8,-,N/A,,Clear,160,2014-01-24 22:35:00
5:55 PM,24.6,-12.8,19,30.28,10.0,SSE,4.6,-,N/A,,Clear,160,2014-01-24 22:55:00
6:15 PM,23.7,-12.1,20,30.27,10.0,SSE,4.6,-,N/A,,Clear,160,2014-01-24 23:15:00
6:35 PM,23.0,-11.2,22,30.27,10.0,Calm,Calm,-,N/A,,Clear,0,2014-01-24 23:35:00
6:55 PM,22.6,-10.8,23,30.27,10.0,South,3.5,-,N/A,,Clear,170,2014-01-24 23:55:00
7:15 PM,22.1,-10.8,23,30.25,10.0,Calm,Calm,-,N/A,,Clear,0,2014-01-25 00:15:00
7:35 PM,22.1,-10.7,23,30.24,10.0,Calm,Calm,-,N/A,,Clear,0,2014-01-25 00:35:00
7:55 PM,21.2,-10.1,25,30.23,10.0,Calm,Calm,-,N/A,,Clear,0,2014-01-25 00:55:00
8:15 PM,21.0,-9.8,25,30.22,10.0,Calm,Calm,-,N/A,,Clear,0,2014-01-25 01:15:00
8:35 PM,20.8,-9.4,26,30.22,10.0,Calm,Calm,-,N/A,,Clear,0,2014-01-25 01:35:00
8:55 PM,20.5,-8.9,27,30.21,10.0,SSW,4.6,-,N/A,,Clear,200,2014-01-25 01:55:00
9:15 PM,20.1,-8.1,28,30.20,10.0,Calm,Calm,-,N/A,,Clear,0,2014-01-25 02:15:00
9:35 PM,20.1,-7.8,29,30.19,10.0,SSW,4.6,-,N/A,,Clear,210,2014-01-25 02:35:00
9:55 PM,20.3,-7.8,29,30.18,10.0,South,3.5,-,N/A,,Clear,190,2014-01-25 02:55:00
10:15 PM,19.8,-7.8,29,30.17,10.0,SSW,3.5,-,N/A,,Clear,200,2014-01-25 03:15:00
10:35 PM,19.4,-7.2,31,30.17,10.0,SSW,3.5,-,N/A,,Clear,200,2014-01-25 03:35:00
10:55 PM,19.4,-6.9,31,30.16,10.0,Calm,Calm,-,N/A,,Clear,0,2014-01-25 03:55:00
11:15 PM,19.2,-6.9,31,30.16,10.0,Calm,Calm,-,N/A,,Clear,0,2014-01-25 04:15:00
11:35 PM,18.3,-6.3,33,30.15,10.0,Calm,Calm,-,N/A,,Clear,0,2014-01-25 04:35:00
11:55 PM,18.1,-6.3,34,30.14,10.0,Calm,Calm,-,N/A,,Clear,0,2014-01-25 04:55:00